Showing default

OPS 9347 (IDSCS 25), 3290

Orbit data source: Space-Track

OPS 9347 (IDSCS 25), 3290 is a payload satellite owned by SAMSO (US) in GEO that was launched on Thu, 13 Jun 1968 UTC via a TITAN IIIC launch vehicle from the Air Force Eastern Test Range (AFETR). Payload-class satellites include a variety of spacecraft equipped with specific instruments for various scientific and technological missions. These include communications satellites like Starlink; space stations such as the ISS; scientific satellites like the Hubble; Earth observation satellites from companies like Planet Labs, Umbra, and HawkEye 360; GPS; miniature CubeSats for education and research; and military/defense satellites.

Not visible in the next 10 days
Identifier
3290, 1968-050G
Orbit
GEO
Last TLE update
3 days ago
Origin
Manufacturer
Philco-Ford
Mission
Non-operational Defense Communications
Bus & Motor
IDCSP, Unknown motor
Mass
45 kg wet, 45 kg dry
Launch date (UTC)
1968-06-13 (57 years ago)
Launch vehicle
TITAN IIIC
Launch site
Air Force Eastern Test Range (AFETR)
Object type
Payload
Rocket body
Debris
Shape & HBR
Poly, 0.9 m
Radar Cross Section
0.926 m², Medium (>0.1 m² and < 1m²)

Expand to show TLE details & history

TLE from 3 days ago
0 OPS 9347 (IDSCS 25)
1 03290U 68050G   25107.03434831 -.00000047  00000-0  00000-0 0  9996
2 03290   6.0740  57.8940 0058883 124.2773  35.7686  1.07034777 42573
Epoch: 2025-04-17T00:49Z
Definitive object data (Epoch: 2025-04-17T00:49:27.693Z)
Latitude
2.02062°
Longitude
0.65745°
Altitude
33,797.056 km
Speed
3.157 km/s
True Right ascension
14h 33m 44s
True Declination
2° 01' 06"
Sunlit
Object was in daylight at TLE epoch
Visualization TLE readout
Latitude
1.4182°
Longitude
6.5863°
Altitude
33,812.174 km
Speed
3.156 km/s
Apparent Right ascension
14h 59m 52s
Apparent Declination
-3° 54' 25"
Sunlit
Object is in daylight
Visualization observer readout
Local Sidereal Time
03:19:45
Azimuth
8.395° NNE
Elevation
-53.712°
Doppler factor
1
Orbital elements
Apogee altitude
34,230.037 km
Perigee altitude
33,754.611 km
Semi-major axis
40,370.461 km
Eccentricity
0.0058883
Inclination
6.074°
RAAN
57.894°
Arg. of periapsis
124.2773°
True anomaly
36.16537°
Mean anomaly
35.7686°
Eccentric anomaly
35.96675°
Mean motion
0.26758 °/min
BSTAR
Unknown
Orbital period
1345.41 mins
Loading historical data...
3290 neighbors
Loading maneuver chart data...
Loading SW <> Apogee altitude chart data...
Loading historical data...
Loading historical data...
Loading historical data...
Loading historical data...
Loading historical data...
Loading historical data...
Loading historical data...

OPS 9347 (IDSCS 25) Visibility forecast

Observer location: undefined°, undefined°

OPS 9347 (IDSCS 25) is not visible in the next 10 days
Span
Click to sort rows by Start time (UTC) header in descending order
Start Az.
Max El. time (UTC)
Max El. Az.
Max El.
End time (UTC)
End Az.
|